VIASAT-2 (42740 NORAD) Tracking and Keplerian Element Data

This shows tracking and keplerian element data for the satellite.

Feedback or suggestion? Click here.




ElementValue
Catalog42740
NameVIASAT-2
Epoch Orbit1955
Epoch Day269.58104877
Epoch Year2022
RAAN257.0382
Inclination0.0279
Eccentricity8E-06
Argument of Perigee70.0689
Mean Anonmoly177.5419
Mean Motion1.00271084
Decay Rate-2.62E-06
L11 42740U 17029A 22269.58104877 -.00000262 00000+0 00000+0 0 9996
L22 42740 0.0279 257.0382 0000080 70.0689 177.5419 1.00271084 19559

Live tracking and technical data element details for VIASAT-2 (NORAD 42740). VIASAT-2 can be tracked NOW for your location showing map with azimuth and elevation plus other details from your city location.

Track the satellite on the map from your city or location and see movement details for azimuth, elevation, latitude, longitude, range, height, and movement on the map or in text.







IsCatalogInMostPopularTable: catalog: 42740, numindb: 689
Update: records affected: 1



GetName: 42740 VIASAT-2

Hit Count: updated at: Wed, 28 Sep 2022 23:22:31 GMT